Location: Plymouth
(43.7490°N, 87.9770°W)
Time: 02:35:24
(UTC-05:00)

Daily predictions for brighter satellites

Satellite Brightness Start Highest point End
(mag) Time Altitude Azimuth Time Altitude Azimuth Time Altitude Azimuth
USA 267 4.2 03:31:42 10° ESE 03:36:09 42° ENE 03:36:09 42° ENE
Cosmos 1943 Rocket 4.3 03:57:50 18° NNE 03:57:50 18° NNE 03:59:15 10° NNE
Okean O Rocket 3.6 04:14:36 10° NE 04:18:19 26° E 04:18:42 26° ESE
Lacrosse 5 4.0 04:24:59 18° N 04:24:59 18° N 04:27:34 10° NE
Meteor 2-5 Rocket 4.2 04:31:32 38° SSE 04:33:35 60° E 04:39:16 10° NNE
Cosmos 1125 Rocket 3.7 04:39:17 67° ESE 04:39:17 67° ESE 04:44:30 10° NNE
SL-8 Rocket 4.4 04:41:44 10° N 04:48:02 63° E 04:54:17 10° SSE
USA 215 3.6 04:43:09 10° NE 04:49:22 48° NNW 04:50:01 46° NW
SJ 16-02 1.9 04:52:07 54° NE 04:52:07 54° NE 04:55:36 10° NNE
Cosmos 2369 Rocket 4.4 04:57:25 12° NNW 04:57:25 12° NNW 04:58:25 10° N
PSLV R/B 4.4 04:51:53 10° NNE 04:54:44 41° NNE 04:54:44 41° NNE
Cosmos 2227 Rocket 2.9 04:51:36 10° NNW 04:57:11 53° ENE 05:02:43 10° SE
ADEOS II 2.4 04:55:42 10° N 04:59:49 49° NNW 04:59:49 49° NNW
Milstar 3 4.3 05:01:36 18° SSW 05:01:51 18° SSW 05:06:19 10° SSE
Cosmos 1809 Rocket 4.3 04:57:36 10° NNW 05:03:43 75° W 05:09:49 10° S
MOS 1-B 4.2 04:59:18 10° N 05:05:02 64° WNW 05:05:48 57° WSW
Cosmos 1048 Rocket 3.9 05:06:33 65° SW 05:06:33 65° SW 05:11:27 10° S
NOSS 3-1 (C) 3.5 05:09:14 49° WNW 05:09:55 51° NW 05:16:21 10° NNE
Intercosmos 24 3.8 05:08:57 10° N 05:13:25 84° E 05:17:00 10° S
USA 229 DEB 4.5 05:13:54 31° NW 05:14:48 32° NW 05:21:01 10° NNE
USA 229 4.5 05:13:59 32° NW 05:14:53 33° NW 05:21:06 10° NNE
Meteor 1-24 Rocket 3.8 05:11:48 10° S 05:17:48 87° E 05:23:41 10° N
NOSS 3-1 (A) 3.4 05:16:39 47° W 05:18:11 61° NW 05:24:44 10° NNE
USA 267 3.4 05:14:42 10° SSE 05:21:03 53° SW 05:23:32 35° WNW
Cosmos 2218 Rocket 3.9 05:16:41 10° N 05:22:58 85° W 05:29:18 10° S
IRS-1C Rocket 4.1 05:17:44 10° NNE 05:23:03 82° ESE 05:28:19 10° SSW
CZ-2C R/B 3.9 05:20:43 10° SSE 05:25:27 75° ENE 05:30:08 10° N
Meteor 2-21 Rocket 4.3 05:20:14 10° NNW 05:26:15 65° W 05:32:16 10° S
ATLAS 3B R/B 4.0 05:22:26 10° NNW 05:28:32 34° NE 05:34:25 10° ESE
Cosmos 2219 4.1 05:31:24 29° SW 05:31:24 29° SW 05:35:01 10° SSW
Meteor 1-31 Rocket 2.7 05:28:21 10° NNE 05:32:10 85° ESE 05:35:59 10° SSW
In-Cosmos 22 4.1 05:26:51 10° SSW 05:32:31 83° W 05:38:19 10° N
Cosmos 2297 Rocket 2.2 05:28:32 10° NNW 05:34:14 85° ENE 05:39:53 10° SSE
Cosmos 1607 4.3 05:30:00 10° NNW 05:36:29 70° NE 05:42:56 10° SE
CZ-4B R/B 4.0 05:34:09 10° NNE 05:38:40 86° WNW 05:43:11 10° SSW
Cosmos 1943 Rocket 4.2 05:39:22 11° NNW 05:39:22 11° NNW 05:40:22 10° NNW
Cosmos 1697 Rocket 3.9 05:36:20 10° S 05:41:40 45° ESE 05:47:02 10° NE
Cosmos 1908 3.3 05:38:47 10° N 05:42:37 74° E 05:46:26 10° SSE
Cosmos 1959 Rocket 4.5 05:37:36 10° NNW 05:43:47 60° W 05:49:52 10° S
Cosmos 2181 Rocket 4.3 05:38:37 12° SW 05:43:57 42° WNW 05:49:46 10° N
ATLAS CENTAUR R/B 3.5 05:42:55 10° N 05:45:54 22° NE 05:48:58 10° E
MTI 3.8 05:42:40 10° SSE 05:45:55 80° ENE 05:49:09 10° N
Cosmos 2082 3.6 05:40:29 10° NNW 05:46:10 81° WSW 05:51:47 10° SSE
Meteor PRIRODA 3.7 05:43:26 10° N 05:47:06 52° WNW 05:49:44 17° SW
NOSS 2-3 (C) 4.1 05:43:04 10° SSW 05:47:43 73° ESE 05:53:10 10° NE
Cosmos 2084 Rocket 3.3 05:50:12 25° SW 05:52:36 66° NW 05:56:39 10° NNE
Landsat 4 3.8 05:49:22 10° S 05:53:02 51° W 05:56:43 10° NNW
EO 1 Del DPAF 3.2 05:50:18 10° SSE 05:54:07 85° ENE 05:57:59 10° NNW
Okean O Rocket 2.3 05:50:47 10° N 05:54:41 31° WNW 05:56:09 25° WSW
Cosmos 1980 Rocket 3.9 05:52:15 10° SSE 05:57:16 35° ESE 06:02:19 10° NE
Cosmos 2221 2.6 05:52:51 10° N 05:57:16 85° E 06:01:39 10° S
CZ-2C R/B 4.4 05:53:25 10° NNE 05:57:58 33° E 06:02:35 10° SSE
Meteor 1-28 Rocket 3.2 05:58:17 10° S 06:02:01 55° W 06:05:48 10° NNW
CZ-4B R/B 3.6 05:57:22 10° N 06:02:31 42° WNW 06:07:43 10° SW
Cosmos 1300 4.3 05:59:00 10° N 06:02:36 37° ENE 06:06:10 10° SE
Feng Yun 1-1 Rocket 4.4 05:57:37 10° NNE 06:03:19 84° ESE 06:09:07 10° SSW
Lacrosse 5 3.7 06:04:37 10° NW 06:08:34 22° NNE 06:12:31 10° ENE
COSMO-SKYMED 1 2.5 06:04:28 10° SSE 06:08:48 86° WSW 06:13:11 10° NNW
Cosmos 2369 3.7 06:06:42 10° SW 06:12:17 61° WNW 06:17:53 10° NNE
Cosmos 494 Rocket 4.2 06:09:54 10° NNW 06:14:52 46° WSW 06:19:49 10° S
Meteor 1-21 Rocket 4.2 06:10:59 10° S 06:16:45 84° W 06:22:26 10° N
Okean-O 2.5 06:13:16 10° N 06:17:42 72° WNW 06:22:07 10° SSW
Cosmos 1726 2.0 06:21:22 10° NNW 06:25:02 69° W 06:28:41 10° S
Cosmos 1674 3.3 06:24:58 10° SW 06:28:21 32° WNW 06:31:44 10° N
Thor Agena Rocket 3.9 06:24:26 10° SSE 06:29:39 70° ENE 06:34:50 10° N
SJ 16-02 3.1 06:29:11 12° WNW 06:30:21 13° NW 06:32:26 10° NNW
NOSS 2-3 (D) 4.1 06:25:43 10° SW 06:30:21 56° NW 06:35:52 10° NNE
USA 215 4.4 06:26:03 10° NE 06:31:27 29° N 06:36:52 10° WNW
GRACE-1 4.4 06:30:17 10° N 06:32:49 56° E 06:35:18 10° S
Cosmos 1328 4.5 06:29:39 10° S 06:33:36 61° E 06:37:35 10° NNE
Cosmos 2278 4.1 06:29:28 10° SW 06:34:49 43° WNW 06:40:13 10° NNE
Cosmos 1076 Rocket 3.6 06:32:00 10° SSW 06:36:16 57° W 06:40:32 10° N
NOAA 6 4.2 06:33:44 10° N 06:38:43 50° WNW 06:43:40 10° SW
Cosmos 2098 Rocket 4.4 06:33:04 10° NNW 06:40:35 69° W 06:47:42 10° S
Cosmos 2227 Rocket 3.3 06:36:26 10° NW 06:40:50 24° WSW 06:45:13 10° SSW
IDEFIX/ARIANE 42P 2.5 06:38:03 10° N 06:43:18 75° WNW 06:48:29 10° SSW
Cosmos 1934 Rocket 4.0 06:47:03 10° N 06:53:17 76° W 06:59:24 10° S
